| time (UTC) | temp F | wind direction | speed MPH | gust MPH | rain 1hr in | rain 24hr in | rain mn in | humidity % | barometer mb |
| 20260504044550 | 46 | 0 | 0.0 | 2.0 | 0.00 | 0.00 | 0.00 | 59 | 1013.4 |
| 20260504043045 | 46 | 0 | 0.0 | 2.0 | 0.00 | 0.00 | 0.00 | 58 | 1013.4 |
| 20260504041544 | 46 | 183 | 1.0 | 5.0 | 0.00 | 0.00 | 0.00 | 57 | 1013.4 |
| 20260504040047 | 47 | 0 | 0.0 | 2.0 | 0.00 | 0.00 | 0.00 | 57 | 1013.4 |
| 20260504034542 | 47 | 0 | 0.0 | 2.0 | 0.00 | 0.00 | 0.00 | 58 | 1013.1 |
| 20260504033049 | 46 | 0 | 0.0 | 5.0 | 0.00 | 0.00 | 0.00 | 58 | 1013.1 |
| 20260504031541 | 46 | 0 | 0.0 | 4.0 | 0.00 | 0.00 | 0.00 | 58 | 1013.1 |
| 20260504030049 | 46 | 0 | 0.0 | 2.0 | 0.00 | 0.00 | 0.00 | 58 | 1013.1 |
| 20260504024555 | 47 | 0 | 0.0 | 1.0 | 0.00 | 0.00 | 0.00 | 58 | 1013.2 |
| 20260504023046 | 47 | 0 | 0.0 | 1.0 | 0.00 | 0.00 | 0.00 | 57 | 1013.2 |
| 20260504021551 | 47 | 0 | 0.0 | 1.0 | 0.00 | 0.00 | 0.00 | 57 | 1013.2 |
| 20260504020046 | 48 | 0 | 0.0 | 4.0 | 0.00 | 0.00 | 0.00 | 56 | 1013.2 |
| 20260504014538 | 48 | 0 | 0.0 | 1.0 | 0.00 | 0.00 | 0.00 | 54 | 1013.1 |
| 20260504013103 | 49 | 0 | 0.0 | 3.0 | 0.00 | 0.00 | 0.00 | 52 | 1013.1 |
| 20260504011545 | 50 | 0 | 0.0 | 1.0 | 0.00 | 0.00 | 0.00 | 50 | 1013.0 |
| 20260504010043 | 51 | 0 | 0.0 | 2.0 | 0.00 | 0.00 | 0.00 | 49 | 1013.0 |
| 20260504004556 | 52 | 0 | 0.0 | 4.0 | 0.00 | 0.00 | 0.00 | 47 | 1012.9 |
| 20260504003046 | 53 | 0 | 0.0 | 8.0 | 0.00 | 0.00 | 0.00 | 45 | 1012.7 |
| 20260504001548 | 53 | 225 | 0.0 | 7.0 | 0.00 | 0.00 | 0.00 | 44 | 1012.6 |
| 20260504000044 | 54 | 0 | 0.0 | 8.0 | 0.00 | 0.00 | 0.00 | 43 | 1012.5 |
| 20260503234544 | 55 | 292 | 2.0 | 9.0 | 0.00 | 0.00 | 0.00 | 40 | 1012.5 |
| 20260503233042 | 55 | 253 | 6.0 | 13.0 | 0.00 | 0.00 | 0.00 | 40 | 1012.5 |
| 20260503231549 | 56 | 280 | 6.0 | 16.0 | 0.00 | 0.00 | 0.00 | 39 | 1012.4 |
| 20260503230041 | 57 | 261 | 2.0 | 10.0 | 0.00 | 0.00 | 0.00 | 40 | 1012.5 |
| 20260503224546 | 57 | 227 | 4.0 | 13.0 | 0.00 | 0.00 | 0.00 | 38 | 1012.4 |
| 20260503223044 | 57 | 242 | 5.0 | 14.0 | 0.00 | 0.00 | 0.00 | 39 | 1012.5 |
| 20260503221543 | 57 | 275 | 4.0 | 16.0 | 0.00 | 0.00 | 0.00 | 40 | 1012.5 |
| 20260503220046 | 56 | 259 | 4.0 | 17.0 | 0.00 | 0.00 | 0.00 | 39 | 1012.5 |
| 20260503214539 | 57 | 235 | 6.0 | 16.0 | 0.00 | 0.00 | 0.00 | 37 | 1012.5 |
| 20260503213046 | 57 | 236 | 5.0 | 14.0 | 0.00 | 0.00 | 0.00 | 38 | 1012.5 |
| 20260503211545 | 56 | 319 | 8.0 | 19.0 | 0.00 | 0.00 | 0.00 | 38 | 1012.3 |
| 20260503210043 | 57 | 232 | 6.0 | 18.0 | 0.00 | 0.00 | 0.00 | 39 | 1012.4 |
| 20260503204544 | 57 | 254 | 5.0 | 16.0 | 0.00 | 0.00 | 0.00 | 38 | 1012.4 |
| 20260503203042 | 57 | 282 | 4.0 | 12.0 | 0.00 | 0.00 | 0.00 | 39 | 1012.6 |
| 20260503201544 | 56 | 311 | 6.0 | 14.0 | 0.00 | 0.00 | 0.00 | 38 | 1012.8 |
| 20260503200047 | 57 | 332 | 6.0 | 16.0 | 0.00 | 0.00 | 0.00 | 39 | 1012.8 |
| 20260503194549 | 57 | 276 | 6.0 | 18.0 | 0.00 | 0.00 | 0.00 | 37 | 1012.9 |
| 20260503193046 | 57 | 286 | 5.0 | 14.0 | 0.00 | 0.00 | 0.00 | 38 | 1013.1 |
| 20260503191544 | 55 | 216 | 4.0 | 16.0 | 0.00 | 0.00 | 0.00 | 42 | 1013.2 |
| 20260503190050 | 56 | 249 | 5.0 | 14.0 | 0.00 | 0.00 | 0.00 | 38 | 1013.3 |
| 20260503184555 | 55 | 259 | 6.0 | 16.0 | 0.00 | 0.00 | 0.00 | 42 | 1013.4 |
| 20260503183044 | 55 | 331 | 5.0 | 19.0 | 0.00 | 0.00 | 0.00 | 42 | 1013.7 |
| 20260503181544 | 55 | 313 | 5.0 | 19.0 | 0.00 | 0.00 | 0.00 | 39 | 1013.7 |
| 20260503180053 | 54 | 0 | 8.0 | 18.0 | 0.00 | 0.00 | 0.00 | 41 | 1013.7 |
| 20260503174602 | 53 | 267 | 7.0 | 21.0 | 0.00 | 0.00 | 0.00 | 42 | 1013.9 |
| 20260503173048 | 53 | 302 | 6.0 | 16.0 | 0.00 | 0.00 | 0.00 | 42 | 1014.0 |
| 20260503171540 | 53 | 223 | 3.0 | 13.0 | 0.00 | 0.00 | 0.00 | 42 | 1014.0 |
| 20260503081549 | 37 | 286 | 3.0 | 9.0 | 0.00 | 0.00 | 0.00 | 70 | 1013.8 |
| 20260503071543 | 37 | 327 | 2.0 | 8.0 | 0.00 | 0.01 | 0.00 | 68 | 1013.8 |
| 20260503054545 | 39 | 0 | 1.0 | 8.0 | 0.00 | 0.03 | 0.00 | 65 | 1013.9 |
| 20260503053043 | 39 | 325 | 2.0 | 8.0 | 0.00 | 0.03 | 0.00 | 64 | 1013.9 |
| 20260503051543 | 40 | 0 | 1.0 | 5.0 | 0.00 | 0.03 | 0.00 | 64 | 1013.9 |
| 20260503050049 | 40 | 349 | 0.0 | 7.0 | 0.00 | 0.03 | 0.00 | 64 | 1014.0 |